Regional Weather Roundup
Issued by NWS

Home | Current Version | Previous Version | Graphics & Text | Print | Product List | Glossary On
Versions: 1 2 3 4 5 6 7 8 9 10 11 12 13 14 15 16 17 18 19 20 21 22 23 24 25 26 27 28 29 30 31 32 33 34 35 36 37 38 39 40 41 42 43 44 45 46 47 48 49 50
000
ASUS43 KLSX 210557
RWRMO

WEATHER SUMMARY FOR MISSOURI
NATIONAL WEATHER SERVICE SPRINGFIELD MO
1200 AM CST WED FEB 21 2018

NOTE: "FAIR" INDICATES FEW OR NO CLOUDS BELOW 12,000 FEET WITH NO
       SIGNIFICANT WEATHER AND/OR OBSTRUCTIONS TO VISIBILITY.
       CURRENT SKY AND/OR WEATHER CONDITIONS ARE NOT AVAILABLE FOR
       CHILLICOTHE AND FARMINGTON.

MOZ001>031-035>038-043-044-053-054-210700-
...NORTHERN AND WESTERN MISSOURI...

CITY           SKY/WX    TMP DP  RH WIND       PRES   REMARKS
KANSAS CTY INT CLOUDY    19  14  81 N13       30.38R WCI   6
6HR MIN TEMP:  19; 6HR MAX TEMP:  22;

LEE`S SUMMIT   CLOUDY    20  16  84 N17       30.37R WCI   5
6HR MIN TEMP:  20; 6HR MAX TEMP:  24;

ST JOSEPH      PTCLDY    18  13  80 N15       30.42R WCI   4
6HR MIN TEMP:  18; 6HR MAX TEMP:  22;

CHILLICOTHE      N/A     21  16  81 N6        30.39R WCI  13
6HR MIN TEMP:  21; 6HR MAX TEMP:  25;


$$
MOZ066>068-077>081-088>096-101>105-210700-
...SOUTHWEST MISSOURI...

CITY           SKY/WX    TMP DP  RH WIND       PRES   REMARKS
SPRINGFIELD    CLOUDY    30  27  88 N18G28    30.24R WCI  18
6HR MIN TEMP:  30; 6HR MAX TEMP:  35; 6HR PCP:  0.58;

JOPLIN         CLOUDY    26  24  92 N13       30.32R WCI  15
6HR MIN TEMP:  26; 6HR MAX TEMP:  32; 6HR PCP:  0.09;


$$
MOZ032>034-039>042-045>050-055>058-069>072-210700-
...CENTRAL MISSOURI...

CITY           SKY/WX    TMP DP  RH WIND       PRES   REMARKS
COLUMBIA       NOT AVBL
JEFFERSON CITY FRZ RAIN  30  26  85 N12       30.24F WCI  20
6HR MIN TEMP:  30; 6HR MAX TEMP:  35; 6HR PCP:  0.62;

ROLLA          MIX PCPN  31  31 100 N13       30.21F WCI  21
6HR MIN TEMP:  31; 6HR MAX TEMP:  37; 6HR PCP:  0.43;

SEDALIA        CLOUDY    26  22  84 N17       30.34R WCI  13
6HR MIN TEMP:  25; 6HR MAX TEMP:  30; 6HR PCP:  0.01;

WARRENSBURG    CLOUDY    23  19  86 NW5       30.37R WCI  17

$$
MOZ051-052-059>065-210700-
...EAST CENTRAL MISSOURI...

CITY           SKY/WX    TMP DP  RH WIND       PRES   REMARKS
ST LOUIS INTL  RAIN      34  32  92 NW16      30.27R WCI  24
6HR MIN TEMP:  34; 6HR MAX TEMP:  43; 6HR PCP:  0.81;

ST CHARLES     RAIN      33  31  92 NW12      30.27R FOG     WCI  24
6HR MIN TEMP:  33; 6HR MAX TEMP:  42; 6HR PCP:  0.93;


$$
MOZ072>076-082>087-097>100-106>115-210700-
...SOUTH CENTRAL AND SOUTHEAST MISSOURI...

CITY           SKY/WX    TMP DP  RH WIND       PRES   REMARKS
CAPE GIRARDEAU TSTM      44  42  93 N21       30.18R FOG
6HR MIN TEMP:  44; 6HR MAX TEMP:  72; 6HR PCP:  0.94;

POPLAR BLUFF   RAIN      52  51  97 NE12      30.09F FOG
6HR MIN TEMP:  52; 6HR MAX TEMP:  72; 6HR PCP:  1.32;

WEST PLAINS    CLOUDY    37  34  89 N13G18    30.20R WCI  29
6HR MIN TEMP:  36; 6HR MAX TEMP:  57; 6HR PCP:  2.17;


$$


USA.gov is the U.S. government's official web portal to all federal, state and local government web resources and services.